Terminal Aerodrome Forecast
Issued by NWS Bismarck, ND

Home | Current Version | Previous Version | Graphics & Text | Print | Product List | Glossary On
Versions: 1 2 3 4 5 6 7 8 9 10 11 12 13 14 15 16
000
FTUS43 KBIS 040521
TAFISN
TAF
KISN 040521Z 0406/0506 06003KT P6SM FEW100
     FM041200 13005KT P6SM SCT100
     FM041600 16015KT P6SM SCT070
     FM050100 15008KT P6SM SCT060=

USA.gov is the U.S. government's official web portal to all federal, state and local government web resources and services.